Zurück zum Katalog

STARLINK-31462

AktivKommunikationVLEO
NORAD 59466·PAYLOAD·🇺🇸 United States

Gestartet Apr 10, 2024 von Cape Canaveral Space Force Station

Loading…

Nächste Überflüge (nächste 24 Stunden)

TLE

AktuellSource: CelesTrak SupGP

Epoche: Sep 14, 2026, 21:17 UTC

1 59466C 24068M   26257.88729167  .00061277  00000+0  22195-2 0  2570
2 59466  43.0028  45.9405 0001432 275.2595 274.0939 15.27547436    10

Verfolge STARLINK-31462 in Echtzeit mit AllMySat

Download on the App Store